Location: Unspecified
(43.3830°N, 0.0000°E)
Time: 03:11:50
(UTC+00:00)

Vanguard 2 - Pass Details

Date: 27 June 2019
Orbit: 553 x 2938 km, 32.9° (Epoch: 23 July)

Event Time Altitude Azimuth Distance (km) Brightness Sun altitude
Rises 11:27:37 0° 261° (W) 3,654 11.0 68.6°
Reaches altitude 10° 11:30:25 10° 247° (WSW) 2,991 10.7 68.8°
Maximum altitude 11:36:11 24° 196° (SSW) 2,674 11.0 69.2°
Drops below altitude 10° 11:44:23 10° 150° (SSE) 4,388 11.8 69.6°
Sets 11:49:39 0° 139° (SE) 5,830 12.3 69.7°
